Hourly Weather Roundup
Issued by NWS Central Illinois

Home | Current Version | Previous Version | Text Only | Print | Product List | Glossary On
Versions: 1 2 3 4 5 6 7 8 9 10 11 12 13 14 15 16 17 18 19 20 21 22 23 24 25 26 27 28 29 30 31 32 33 34 35 36 37 38 39 40 41 42 43 44 45 46 47 48 49 50
000
NZUS43 KILX 221710
HWRILX

Area Weather Roundup
National Weather Service Lincoln IL
1200 PM CDT TUE MAY 22 2018

NOTE:  "FAIR" indicates few or no clouds below 12,000 feet, with
       no sigificant weather and/or obstructions to visibility.


CITY           SKY/WX    TMP DP  RH WIND       PRES   REMARKS
Bloomington    FAIR      74  61  63 N8        30.08R
Champaign      FAIR      79  60  52 NW7       30.05S HX  80
Danville       NOT AVBL
Decatur        FAIR      80  62  54 NW10      30.05S HX  81
Effingham      PTSUNNY   81  64  56 W6        30.06S HX  82
Flora          FAIR      83  65  53 NW12      30.04F HX  85
Galesburg      CLOUDY    70  60  70 NW7       30.10S
Jacksonville   MOSUNNY   75  64  67 NW7       30.08S
Lacon          PTSUNNY   72  62  72 NW6       30.07S
Lawrenceville  FAIR      85  66  53 NW9       30.03F HX  87
Litchfield     MOSUNNY   78  65  65 N7        30.07S HX  80
$$


CITY           SKY/WX    TMP DP  RH WIND       PRES   REMARKS
Lincoln        PTSUNNY   79  64  60 NW5       30.06S HX  80
Macomb         CLOUDY    73  63  71 N6        30.11S
Mattoon        FAIR      79  70  74 W5        30.04S HX  82
Mt Carmel AP   PTSUNNY   82  66  57 W6        30.04F HX  85
Olney-Noble AP FAIR      80  68  66 W9        30.05S HX  83
Paris AP       FAIR      79  68  68 NW5       30.05S HX  82
Peoria         PTSUNNY   73  62  68 NW8       30.08S
Pontiac        PTSUNNY   73  66  80 NW8       30.08S
Rantoul        PTSUNNY   80  61  51 NW12G18   30.06S HX  81
Robinson       PTSUNNY   79  70  73 W10       30.04F HX  82
Springfield    FAIR      79  63  57 NW12      30.07S HX  80
Taylorville    PTSUNNY   77  64  63 NW7       30.07R
$$

...REGIONAL REPORTS...


CITY           SKY/WX    TMP DP  RH WIND       PRES   REMARKS
Chicago O`Hare CLOUDY    66  58  75 W3        30.06R
Kankakee       PTSUNNY   71  61  72 NW9       30.07R
La Salle       CLOUDY    72  62  71 NW6       30.08S
Moline         CLOUDY    70  61  73 NW8       30.09R
Mount Sterling PTSUNNY   75  63  66 N8        30.08S
Mount Vernon   NOT AVBL
Pittsfield     MOSUNNY   77  64  64 NW5       30.09S
Quincy         SUNNY     76  61  59 VRB5      30.08F
Rockford       CLOUDY    65  58  78 NW7       30.09R
$$


CITY           SKY/WX    TMP DP  RH WIND       PRES   REMARKS
Burlington     PTSUNNY   75  62  64 N5        30.09R
Cedar Rapids   PTSUNNY   71  61  70 NW6       30.08S
Des Moines     LGT RAIN  71  63  75 SW6       30.08S
Kirksville     SUNNY     79  62  56 SE5       30.10R HX  80
Ottumwa        CLOUDY    75  63  66 VRB5      30.09R
St Louis       PTSUNNY   80  63  55 NW5       30.08R HX  81
$$


CITY           SKY/WX    TMP DP  RH WIND       PRES   REMARKS
Terre Haute    FAIR      81  68  64 W8        30.03F HX  84
Evansville     PTSUNNY   82  70  66 SW7       30.05S HX  86
Indianapolis   PTSUNNY   79  69  71 W9        30.02F HX  81
Lafayette      PTSUNNY   75  64  68 N9G20     30.03S
Madison        CLOUDY    60  55  83 CALM      30.08R
Milwaukee      CLOUDY    58  54  86 E3        30.08R FOG
$$






USA.gov is the U.S. government's official web portal to all federal, state and local government web resources and services.